SP5FLS-15 Weather Reports


time (UTC)temp
C
wind
direction
speed
KPH
gust
KPH
rain 1hr
cm
rain 24hr
cm
rain mn
cm
humidity
%
barometer
mb
20260508073001 5 0.0 0.0 0.00 0.00 0.00 49 1014.4
20260508072502 10 0.0 0.0 0.00 0.00 0.00 10 1014.2
20260508072001 10 0.0 0.0 0.00 0.00 0.00 98 1013.9
20260508071502 10 0.0 0.0 0.00 0.00 0.00 97 1014.0
20260508071002 10 0.0 0.0 0.00 0.00 0.00 97 1014.1
20260508070502 9 0.0 0.0 0.00 0.00 0.00 97 1014.2
20260508070002 10 0.0 0.0 0.00 0.00 0.00 97 1014.5
20260508065501 10 0.0 0.0 0.00 0.00 0.00 99 1014.7
20260508065002 9 0.0 0.0 0.00 0.00 0.00 98 1014.0
20260508064501 10 0.0 0.0 0.00 0.00 0.00 99 1014.1
20260508064002 10 0.0 0.0 0.00 0.00 0.00 10 1014.1
20260508063501 10 0.0 0.0 0.00 0.00 0.00 10 1014.0
20260508063002 9 0.0 0.0 0.00 0.00 0.00 10 1013.8
20260508062502 10 0.0 0.0 0.00 0.00 0.00 97 1014.0
20260508062002 10 0.0 0.0 0.00 0.00 0.00 98 1013.6
20260508061502 10 0.0 0.0 0.00 0.00 0.00 97 1013.9
20260508061002 10 0.0 0.0 0.00 0.00 0.00 98 1013.7
20260508060502 10 0.0 0.0 0.00 0.00 0.00 98 1014.1
20260508060002 10 0.0 0.0 0.00 0.00 0.00 99 1013.5
20260508055502 10 0.0 0.0 0.00 0.00 0.00 98 1013.7
20260508055001 10 0.0 0.0 0.00 0.00 0.00 97 1013.8
20260508054502 10 0.0 0.0 0.00 0.00 0.00 97 1013.6
20260508054002 10 0.0 0.0 0.00 0.00 0.00 99 1013.7
20260508053502 9 0.0 0.0 0.00 0.00 0.00 99 1013.5
20260508052501 9 0.0 0.0 0.00 0.00 0.00 99 1013.5
20260508052002 10 0.0 0.0 0.00 0.00 0.00 98 1013.9
20260508051501 9 0.0 0.0 0.00 0.00 0.00 98 1013.5
20260508051002 9 0.0 0.0 0.00 0.00 0.00 98 1013.5
20260508050501 9 0.0 0.0 0.00 0.00 0.00 98 1013.4
20260508050002 9 0.0 0.0 0.00 0.00 0.00 98 1013.4
20260508045501 9 0.0 0.0 0.00 0.00 0.00 99 1013.3
20260508045002 9 0.0 0.0 0.00 0.00 0.00 97 1013.7
20260508044502 9 0.0 0.0 0.00 0.00 0.00 97 1013.6
20260508044002 9 0.0 0.0 0.00 0.00 0.00 97 1013.6
20260508043502 9 0.0 0.0 0.00 0.00 0.00 96 1013.7
20260508043002 9 0.0 0.0 0.00 0.00 0.00 96 1013.4
20260508042502 9 0.0 0.0 0.00 0.00 0.00 95 1013.5
20260508042002 9 0.0 0.0 0.00 0.00 0.00 94 1012.8
20260508041502 9 0.0 0.0 0.00 0.00 0.00 92 1012.7
20260508041002 9 0.0 0.0 0.00 0.00 0.00 93 1012.6
20260508040002 9 0.0 0.0 0.00 0.00 0.00 91 1013.6
20260508035502 9 0.0 0.0 0.00 0.00 0.00 90 1013.0
20260508035001 9 0.0 0.0 0.00 0.00 0.00 91 1013.6
20260508034502 9 0.0 0.0 0.00 0.00 0.00 91 1014.0
20260508034002 9 0.0 0.0 0.00 0.00 0.00 90 1013.3
20260508033502 9 0.0 0.0 0.00 0.00 0.00 88 1012.9
20260508033002 9 0.0 0.0 0.00 0.00 0.00 31 1013.5
20260508032502 9 0.0 0.0 0.00 0.00 0.00 87 1013.1
20260508032002 9 0.0 0.0 0.00 0.00 0.00 31 1013.1
20260508031501 9 0.0 0.0 0.00 0.00 0.00 33 1012.9
20260508031002 9 0.0 0.0 0.00 0.00 0.00 33 1013.3
20260508030502 9 0.0 0.0 0.00 0.00 0.00 32 1013.5
20260508030002 9 0.0 0.0 0.00 0.00 0.00 34 1013.2
20260508025502 10 0.0 0.0 0.00 0.00 0.00 33 1013.0
20260508025002 9 0.0 0.0 0.00 0.00 0.00 33 1013.0
20260508024501 9 0.0 0.0 0.00 0.00 0.00 34 1013.2
20260508024002 10 0.0 0.0 0.00 0.00 0.00 35 1012.9
20260508023501 10 0.0 0.0 0.00 0.00 0.00 35 1012.9
20260508023002 10 0.0 0.0 0.00 0.00 0.00 35 1012.4
20260508022502 10 0.0 0.0 0.00 0.00 0.00 36 1012.9
20260508022002 10 0.0 0.0 0.00 0.00 0.00 36 1012.8
20260508021502 10 0.0 0.0 0.00 0.00 0.00 36 1013.1
20260508021002 10 0.0 0.0 0.00 0.00 0.00 37 1013.0
20260508020502 10 0.0 0.0 0.00 0.00 0.00 37 1012.7
20260508020002 10 0.0 0.0 0.00 0.00 0.00 37 1012.8
20260508015502 10 0.0 0.0 0.00 0.00 0.00 37 1012.6
20260508015001 10 0.0 0.0 0.00 0.00 0.00 38 1013.0
20260508014502 10 0.0 0.0 0.00 0.00 0.00 38 1012.9
20260508014002 10 0.0 0.0 0.00 0.00 0.00 37 1012.5
20260508013502 10 0.0 0.0 0.00 0.00 0.00 36 1012.2
20260508013002 10 0.0 0.0 0.00 0.00 0.00 36 1012.8
20260508012502 10 0.0 0.0 0.00 0.00 0.00 36 1012.2
20260508012002 10 0.0 0.0 0.00 0.00 0.00 36 1012.6
20260508011502 10 0.0 0.0 0.00 0.00 0.00 37 1013.0
20260508011002 10 0.0 0.0 0.00 0.00 0.00 36 1012.8
20260508010502 10 0.0 0.0 0.00 0.00 0.00 36 1012.8
20260508010002 10 0.0 0.0 0.00 0.00 0.00 35 1012.9
20260508005502 10 0.0 0.0 0.00 0.00 0.00 34 1012.3
20260508005002 10 0.0 0.0 0.00 0.00 0.00 36 1012.7
20260508004501 10 0.0 0.0 0.00 0.00 0.00 34 1012.4
20260508004002 10 0.0 0.0 0.00 0.00 0.00 34 1013.2
20260508003501 10 0.0 0.0 0.00 0.00 0.00 34 1012.6
20260508003002 10 0.0 0.0 0.00 0.00 0.00 34 1012.9
20260508002501 10 0.0 0.0 0.00 0.00 0.00 34 1012.6
20260508002002 10 0.0 0.0 0.00 0.00 0.00 34 1012.8
20260508001501 10 0.0 0.0 0.00 0.00 0.00 34 1012.2
20260508001002 10 0.0 0.0 0.00 0.00 0.00 34 1012.6
20260508000501 10 0.0 0.0 0.00 0.00 0.00 34 1012.5
20260507235502 10 0.0 0.0 0.00 0.00 0.00 34 1012.8
20260507235002 10 0.0 0.0 0.00 0.00 0.00 36 1012.4
20260507234502 10 0.0 0.0 0.00 0.00 0.00 37 1012.5
20260507234002 10 0.0 0.0 0.00 0.00 0.00 38 1012.3
20260507233502 10 0.0 0.0 0.00 0.00 0.00 38 1012.5
20260507233002 10 0.0 0.0 0.00 0.00 0.00 39 1012.5
20260507232502 10 0.0 0.0 0.00 0.00 0.00 38 1012.3
20260507232001 10 0.0 0.0 0.00 0.00 0.00 36 1012.6
20260507231502 10 0.0 0.0 0.00 0.00 0.00 38 1012.1
20260507231001 10 0.0 0.0 0.00 0.00 0.00 39 1012.3
20260507230502 10 0.0 0.0 0.00 0.00 0.00 40 1012.0
20260507230002 10 0.0 0.0 0.00 0.00 0.00 39 1012.6
20260507225502 10 0.0 0.0 0.00 0.00 0.00 39 1012.6
20260507225001 10 0.0 0.0 0.00 0.00 0.00 39 1012.9
20260507224502 10 0.0 0.0 0.00 0.00 0.00 39 1012.5
20260507224001 11 0.0 0.0 0.00 0.00 0.00 40 1012.8
20260507223502 11 0.0 0.0 0.00 0.00 0.00 41 1012.2
20260507223002 11 0.0 0.0 0.00 0.00 0.00 41 1012.4
20260507222502 11 0.0 0.0 0.00 0.00 0.00 41 1012.8
20260507222001 11 0.0 0.0 0.00 0.00 0.00 41 1012.0
20260507221502 11 0.0 0.0 0.00 0.00 0.00 41 1012.5
20260507221002 11 0.0 0.0 0.00 0.00 0.00 40 1012.1
20260507220502 11 0.0 0.0 0.00 0.00 0.00 43 1012.1
20260507220002 11 0.0 0.0 0.00 0.00 0.00 41 1012.1
20260507215502 11 0.0 0.0 0.00 0.00 0.00 42 1012.5
20260507215002 11 0.0 0.0 0.00 0.00 0.00 42 1012.2
20260507214502 11 0.0 0.0 0.00 0.00 0.00 45 1012.2
20260507214002 11 0.0 0.0 0.00 0.00 0.00 46 1012.5
20260507213502 11 0.0 0.0 0.00 0.00 0.00 46 1012.2
20260507213002 11 0.0 0.0 0.00 0.00 0.00 47 1012.1
20260507212502 11 0.0 0.0 0.00 0.00 0.00 46 1011.8
20260507212002 11 0.0 0.0 0.00 0.00 0.00 46 1012.2
20260507211502 11 0.0 0.0 0.00 0.00 0.00 47 1012.0
20260507211002 11 0.0 0.0 0.00 0.00 0.00 47 1011.6
20260507210502 11 0.0 0.0 0.00 0.00 0.00 48 1012.0
20260507210002 11 0.0 0.0 0.00 0.00 0.00 47 1011.9
20260507205502 11 0.0 0.0 0.00 0.00 0.00 48 1011.7
20260507205002 11 0.0 0.0 0.00 0.00 0.00 48 1011.8
20260507204502 11 0.0 0.0 0.00 0.00 0.00 47 1012.1
20260507204002 11 0.0 0.0 0.00 0.00 0.00 48 1011.8
20260507203502 11 0.0 0.0 0.00 0.00 0.00 48 1011.6
20260507203002 11 0.0 0.0 0.00 0.00 0.00 48 1011.8
20260507202502 11 0.0 0.0 0.00 0.00 0.00 49 1012.1
20260507202002 11 0.0 0.0 0.00 0.00 0.00 46 1011.5
20260507201502 11 0.0 0.0 0.00 0.00 0.00 47 1011.7
20260507201002 11 0.0 0.0 0.00 0.00 0.00 47 1012.5
20260507200502 11 0.0 0.0 0.00 0.00 0.00 48 1011.8
20260507200002 11 0.0 0.0 0.00 0.00 0.00 46 1012.1
20260507195502 11 0.0 0.0 0.00 0.00 0.00 47 1012.2
20260507195002 11 0.0 0.0 0.00 0.00 0.00 47 1012.2
20260507194502 11 0.0 0.0 0.00 0.00 0.00 47 1011.9
20260507194002 11 0.0 0.0 0.00 0.00 0.00 46 1012.0
20260507193502 11 0.0 0.0 0.00 0.00 0.00 47 1011.6
20260507193002 11 0.0 0.0 0.00 0.00 0.00 47 1011.7
20260507192502 11 0.0 0.0 0.00 0.00 0.00 45 1011.7
20260507192001 11 0.0 0.0 0.00 0.00 0.00 46 1011.5
20260507191502 11 0.0 0.0 0.00 0.00 0.00 46 1011.6
20260507191002 11 0.0 0.0 0.00 0.00 0.00 44 1011.6
20260507190502 11 0.0 0.0 0.00 0.00 0.00 44 1011.5
20260507185501 11 0.0 0.0 0.00 0.00 0.00 47 1011.3
20260507185002 6 0.0 0.0 0.00 0.00 0.00 24 1011.4
20260507184501 12 0.0 0.0 0.00 0.00 0.00 50 1011.1
20260507184002 12 0.0 0.0 0.00 0.00 0.00 50 1010.9
20260507183501 12 0.0 0.0 0.00 0.00 0.00 51 1011.1
20260507183002 12 0.0 0.0 0.00 0.00 0.00 52 1011.1
20260507182502 12 0.0 0.0 0.00 0.00 0.00 51 1011.3
20260507182001 12 0.0 0.0 0.00 0.00 0.00 51 1011.3
20260507181502 12 0.0 0.0 0.00 0.00 0.00 53 1011.2
20260507181001 12 0.0 0.0 0.00 0.00 0.00 52 1010.9
20260507180502 12 0.0 0.0 0.00 0.00 0.00 51 1010.9
20260507180002 12 0.0 0.0 0.00 0.00 0.00 52 1010.9
20260507175502 12 0.0 0.0 0.00 0.00 0.00 51 1011.1
20260507175002 12 0.0 0.0 0.00 0.00 0.00 52 1011.0
20260507174502 12 0.0 0.0 0.00 0.00 0.00 52 1010.9
20260507174002 12 0.0 0.0 0.00 0.00 0.00 52 1010.9
20260507173501 12 0.0 0.0 0.00 0.00 0.00 52 1010.7
20260507173002 12 0.0 0.0 0.00 0.00 0.00 51 1010.8
20260507172502 12 0.0 0.0 0.00 0.00 0.00 53 1010.6
20260507172002 12 0.0 0.0 0.00 0.00 0.00 52 1010.4
20260507171502 12 0.0 0.0 0.00 0.00 0.00 52 1010.3
20260507171002 12 0.0 0.0 0.00 0.00 0.00 53 1010.1
20260507170502 12 0.0 0.0 0.00 0.00 0.00 53 1010.1
20260507170001 13 0.0 0.0 0.00 0.00 0.00 53 1009.9
20260507165502 13 0.0 0.0 0.00 0.00 0.00 53 1009.8
20260507165002 13 0.0 0.0 0.00 0.00 0.00 54 1009.9
20260507164502 13 0.0 0.0 0.00 0.00 0.00 53 1009.8
20260507164002 13 0.0 0.0 0.00 0.00 0.00 54 1009.7
20260507163501 13 0.0 0.0 0.00 0.00 0.00 54 1009.9
20260507163002 13 0.0 0.0 0.00 0.00 0.00 55 1009.7
20260507162501 13 0.0 0.0 0.00 0.00 0.00 56 1009.7
20260507162002 13 0.0 0.0 0.00 0.00 0.00 56 1009.6
20260507161502 13 0.0 0.0 0.00 0.00 0.00 58 1009.5
20260507161002 14 0.0 0.0 0.00 0.00 0.00 56 1009.7
20260507160502 13 0.0 0.0 0.00 0.00 0.00 57 1009.8
20260507160002 14 0.0 0.0 0.00 0.00 0.00 56 1009.8
20260507155502 14 0.0 0.0 0.00 0.00 0.00 57 1010.0
20260507155002 14 0.0 0.0 0.00 0.00 0.00 57 1009.9
20260507154502 14 0.0 0.0 0.00 0.00 0.00 55 1009.9
20260507154002 0 0.0 0.0 0.00 0.00 0.00 55 1009.9
20260507153502 14 0.0 0.0 0.00 0.00 0.00 55 1009.8
20260507153002 14 0.0 0.0 0.00 0.00 0.00 55 1009.9
20260507152501 14 0.0 0.0 0.00 0.00 0.00 53 1009.7
20260507152002 14 0.0 0.0 0.00 0.00 0.00 54 1009.9
20260507151501 14 0.0 0.0 0.00 0.00 0.00 52 1009.8
20260507151002 14 0.0 0.0 0.00 0.00 0.00 53 1009.8
20260507150501 14 0.0 0.0 0.00 0.00 0.00 52 1009.8
20260507150002 14 0.0 0.0 0.00 0.00 0.00 53 1009.8
20260507145502 14 0.0 0.0 0.00 0.00 0.00 52 1009.9
20260507145002 14 0.0 0.0 0.00 0.00 0.00 51 1009.8
20260507144502 14 0.0 0.0 0.00 0.00 0.00 52 1009.7
20260507144002 14 0.0 0.0 0.00 0.00 0.00 51 1009.8
20260507143502 14 0.0 0.0 0.00 0.00 0.00 52 1009.8
20260507143001 15 0.0 0.0 0.00 0.00 0.00 50 1009.7
20260507142502 15 0.0 0.0 0.00 0.00 0.00 50 1009.6
20260507142002 14 0.0 0.0 0.00 0.00 0.00 50 1009.6
20260507141502 14 0.0 0.0 0.00 0.00 0.00 51 1009.6
20260507141002 15 0.0 0.0 0.00 0.00 0.00 49 1009.6
20260507140501 14 0.0 0.0 0.00 0.00 0.00 48 1009.5
20260507140002 15 0.0 0.0 0.00 0.00 0.00 50 1009.4
20260507135502 15 0.0 0.0 0.00 0.00 0.00 49 1009.4
20260507135001 14 0.0 0.0 0.00 0.00 0.00 46 1009.5
20260507134502 14 0.0 0.0 0.00 0.00 0.00 49 1009.4
20260507134002 15 0.0 0.0 0.00 0.00 0.00 49 1009.4
20260507133502 14 0.0 0.0 0.00 0.00 0.00 50 1009.3
20260507133001 15 0.0 0.0 0.00 0.00 0.00 47 1009.4
20260507132502 15 0.0 0.0 0.00 0.00 0.00 48 1009.4
20260507132001 14 0.0 0.0 0.00 0.00 0.00 48 1009.4
20260507131502 15 0.0 0.0 0.00 0.00 0.00 47 1009.4
20260507131002 14 0.0 0.0 0.00 0.00 0.00 45 1009.3
20260507130502 14 0.0 0.0 0.00 0.00 0.00 46 1009.3
20260507130002 14 0.0 0.0 0.00 0.00 0.00 48 1009.5
20260507125502 14 0.0 0.0 0.00 0.00 0.00 45 1009.5
20260507125002 14 0.0 0.0 0.00 0.00 0.00 47 1009.5
20260507124502 14 0.0 0.0 0.00 0.00 0.00 47 1009.4
20260507124002 14 0.0 0.0 0.00 0.00 0.00 46 1009.4
20260507123502 14 0.0 0.0 0.00 0.00 0.00 47 1009.3
20260507123002 14 0.0 0.0 0.00 0.00 0.00 48 1009.4
20260507122502 14 0.0 0.0 0.00 0.00 0.00 48 1009.4
20260507122002 14 0.0 0.0 0.00 0.00 0.00 47 1009.4
20260507121502 15 0.0 0.0 0.00 0.00 0.00 48 1009.3
20260507121002 14 0.0 0.0 0.00 0.00 0.00 45 1009.3
20260507120002 15 0.0 0.0 0.00 0.00 0.00 46 1009.4
20260507115502 14 0.0 0.0 0.00 0.00 0.00 43 1009.4
20260507115001 14 0.0 0.0 0.00 0.00 0.00 43 1009.4
20260507114502 14 0.0 0.0 0.00 0.00 0.00 43 1009.4
20260507114002 14 0.0 0.0 0.00 0.00 0.00 39 1009.4
20260507113502 14 0.0 0.0 0.00 0.00 0.00 38 1009.4
20260507113002 14 0.0 0.0 0.00 0.00 0.00 40 1009.4
20260507112502 14 0.0 0.0 0.00 0.00 0.00 36 1009.2
20260507112002 13 0.0 0.0 0.00 0.00 0.00 38 1009.1
20260507111502 14 0.0 0.0 0.00 0.00 0.00 41 1009.0
20260507111002 15 0.0 0.0 0.00 0.00 0.00 42 1009.1
20260507110502 14 0.0 0.0 0.00 0.00 0.00 34 1009.0
20260507110002 13 0.0 0.0 0.00 0.00 0.00 34 1008.9
20260507105502 14 0.0 0.0 0.00 0.00 0.00 36 1008.9
20260507105002 14 0.0 0.0 0.00 0.00 0.00 33 1008.8
20260507104502 14 0.0 0.0 0.00 0.00 0.00 34 1008.6
20260507104002 13 0.0 0.0 0.00 0.00 0.00 91 1008.7
20260507103502 13 0.0 0.0 0.00 0.00 0.00 92 1008.6
20260507103001 13 0.0 0.0 0.00 0.00 0.00 89 1008.6
20260507102502 13 0.0 0.0 0.00 0.00 0.00 94 1008.6
20260507102002 12 0.0 0.0 0.00 0.00 0.00 93 1008.6
20260507101502 12 0.0 0.0 0.00 0.00 0.00 92 1008.6
20260507101002 13 0.0 0.0 0.00 0.00 0.00 92 1008.6
20260507100502 12 0.0 0.0 0.00 0.00 0.00 91 1008.6
20260507100002 13 0.0 0.0 0.00 0.00 0.00 91 1008.5
20260507095002 13 0.0 0.0 0.00 0.00 0.00 89 1008.2
20260507094502 13 0.0 0.0 0.00 0.00 0.00 90 1008.2
20260507094002 12 0.0 0.0 0.00 0.00 0.00 90 1008.1
20260507093502 12 0.0 0.0 0.00 0.00 0.00 92 1008.1
20260507093002 13 0.0 0.0 0.00 0.00 0.00 92 1008.1
20260507092502 12 0.0 0.0 0.00 0.00 0.00 94 1008.0
20260507092002 12 0.0 0.0 0.00 0.00 0.00 91 1008.1
20260507091502 13 0.0 0.0 0.00 0.00 0.00 92 1007.8
20260507091001 13 0.0 0.0 0.00 0.00 0.00 93 1007.8
20260507090502 13 0.0 0.0 0.00 0.00 0.00 92 1007.7
20260507090002 13 0.0 0.0 0.00 0.00 0.00 94 1007.7
20260507085502 13 0.0 0.0 0.00 0.00 0.00 94 1007.4
20260507085002 13 0.0 0.0 0.00 0.00 0.00 92 1007.4
20260507084502 13 0.0 0.0 0.00 0.00 0.00 93 1007.4
20260507084002 13 0.0 0.0 0.00 0.00 0.00 93 1007.6
20260507083502 13 0.0 0.0 0.00 0.00 0.00 91 1007.4
20260507083002 14 0.0 0.0 0.00 0.00 0.00 91 1007.2
20260507082502 14 0.0 0.0 0.00 0.00 0.00 94 1007.2
20260507082002 13 0.0 0.0 0.00 0.00 0.00 96 1007.3
20260507081501 13 0.0 0.0 0.00 0.00 0.00 97 1007.0
20260507081002 14 0.0 0.0 0.00 0.00 0.00 96 1007.2
20260507080502 13 0.0 0.0 0.00 0.00 0.00 95 1007.2
20260507080002 13 0.0 0.0 0.00 0.00 0.00 96 1007.1
20260507075502 13 0.0 0.0 0.00 0.00 0.00 94 1007.1
20260507075002 13 0.0 0.0 0.00 0.00 0.00 96 1007.0
20260507074502 13 0.0 0.0 0.00 0.00 0.00 93 1006.9
20260507074001 14 0.0 0.0 0.00 0.00 0.00 91 1006.8
20260507073502 14 0.0 0.0 0.00 0.00 0.00 90 1006.8